Weather History for McGuire AFB, NJ

Change the Weather History Date:

Thursday, September 5, 2013

  Actual Average Record
Temperature  
Mean Temperature 69 °F -  
Max Temperature 80 °F 79 °F 88 °F (2008)
Min Temperature 58 °F 59 °F 50 °F (2000)
Cooling Degree Days 4    
Growing Degree Days 19 (Base 50)    
Moisture  
Dew Point 56 °F    
Average Humidity 66    
Maximum Humidity 91    
Minimum Humidity 47    
Precipitation  
Precipitation 0.00 in - - ()
Sea Level Pressure  
Sea Level Pressure 30.01 in    
Wind  
Wind Speed 6 mph (NW)    
Max Wind Speed 13 mph    
Max Gust Speed -    
Visibility 10 miles    
Events Rain    
Averages and records for this station are not official NWS values.
T = Trace of Precipitation, MM = Missing Value Source: NWS Daily Summary

Daily Weather History Graph

Daily Weather History Graph

Search for Another Location

Airport:

Trip Planner

Search our weather history database for the weather conditions in past years. The results will help you decide how hot, cold, wet, or windy it might be!

Date:

Astronomy

Sep. 05, 2013 Rise Set
Actual Time 6:30 AM EDT 7:23 PM EDT
Civil Twilight 6:02 AM EDT 7:50 PM EDT
Nautical Twilight 5:29 AM EDT 8:23 PM EDT
Astronomical Twilight 4:55 AM EDT 8:57 PM EDT
Moon 6:39 AM EDT (9/5) 7:13 PM EDT (9/5)
Length of Visible Light 13h 48m
Length of Day
12h 53m
New Moon, 0% of the Moon is Illuminated
Sep 5
New Moon
Sep 12
First Quarter
Sep 19
Full
Sep 26
Last Quarter
Oct 4
New

Hourly Weather History & Observations

Time (EDT) Temp. Heat Index Dew Point Humidity Pressure Visibility Wind Dir Wind Speed Gust Speed Precip Events Conditions
12:58 AM 61.9 °F - 57.4 °F 85% 29.99 in 10.0 mi South 3.5 mph - N/A   Clear
1:58 AM 62.8 °F - 58.5 °F 86% 29.98 in 10.0 mi SW 4.6 mph - N/A   Clear
2:58 AM 62.4 °F - 58.8 °F 88% 29.97 in 10.0 mi West 3.5 mph - N/A   Clear
3:58 AM 61.5 °F - 58.8 °F 91% 29.97 in 10.0 mi WSW 5.8 mph - N/A   Clear
4:58 AM 61.7 °F - 58.8 °F 90% 29.97 in 10.0 mi WSW 3.5 mph - N/A   Clear
5:58 AM 61.3 °F - 58.3 °F 90% 29.97 in 10.0 mi SW 4.6 mph - N/A   Clear
6:58 AM 62.6 °F - 57.9 °F 85% 29.99 in 10.0 mi West 5.8 mph - N/A   Clear
7:58 AM 66.4 °F - 58.5 °F 76% 29.99 in 10.0 mi West 8.1 mph - N/A   Clear
8:58 AM 70.9 °F - 60.1 °F 69% 30.00 in 10.0 mi WNW 10.4 mph - N/A   Clear
9:58 AM 75.4 °F - 60.6 °F 60% 30.00 in 10.0 mi WNW 9.2 mph - N/A   Mostly Cloudy
10:56 AM 75.2 °F - 59.0 °F 57% 29.98 in 10.0 mi NW 9.2 mph - N/A   Mostly Cloudy
11:56 AM 77.0 °F - 60.8 °F 57% 29.98 in 10.0 mi WNW 8.1 mph - N/A   Partly Cloudy
12:40 PM 77.0 °F - 60.8 °F 57% 29.99 in 10.0 mi Variable 5.8 mph - N/A Rain Light Rain
12:49 PM 77.0 °F - 60.8 °F 57% 29.99 in 10.0 mi NNW 10.4 mph - N/A   Mostly Cloudy
12:56 PM 77.0 °F - 60.8 °F 57% 29.98 in 10.0 mi NNW 9.2 mph - N/A   Overcast
1:58 PM 80.2 °F 81.0 °F 60.3 °F 50% 29.99 in 10.0 mi NNW 6.9 mph - N/A   Mostly Cloudy
2:58 PM 76.3 °F - 59.7 °F 56% 29.99 in 10.0 mi NNW 9.2 mph - N/A   Mostly Cloudy
3:58 PM 74.7 °F - 57.6 °F 55% 29.99 in 10.0 mi North 9.2 mph - N/A   Mostly Cloudy
4:58 PM 75.0 °F - 57.7 °F 55% 30.00 in 10.0 mi North 5.8 mph - N/A   Overcast
5:58 PM 73.4 °F - 53.2 °F 49% 30.02 in 10.0 mi North 8.1 mph - N/A   Overcast
6:58 PM 70.0 °F - 48.7 °F 47% 30.04 in 10.0 mi North 10.4 mph - N/A   Clear
7:58 PM 63.3 °F - 47.5 °F 56% 30.07 in 10.0 mi North 9.2 mph - N/A   Clear
8:58 PM 60.8 °F - 47.1 °F 61% 30.09 in 10.0 mi North 5.8 mph - N/A   Clear
9:58 PM 59.4 °F - 46.2 °F 62% 30.11 in 10.0 mi NNE 4.6 mph - N/A   Clear
10:58 PM 58.1 °F - 46.6 °F 65% 30.10 in 10.0 mi NNE 12.7 mph - N/A   Clear
11:58 PM 61.5 °F - 45.9 °F 56% 30.12 in 10.0 mi North 12.7 mph - N/A   Clear